Ellensburg, WA

3:00 PM PST on February 22, 2017 (GMT -0800)
Bowers

Weather History for KELN - May, 2013

Change the Weather History Date:

Sunday, May 26, 2013

  Actual Average (KYKM) Record (KYKM)
Temperature  
Mean Temperature 57 °F -  
Max Temperature 71 °F 74 °F 98 °F (1958)
Min Temperature 48 °F 45 °F 31 °F (1973)
Degree Days  
Heating Degree Days 8    
Growing Degree Days 7 (Base 50)    
Moisture  
Dew Point 44 °F    
Average Humidity 64    
Maximum Humidity 80    
Minimum Humidity 40    
Precipitation  
Precipitation 0.02 in - - ()
Sea Level Pressure  
Sea Level Pressure 29.94 in    
Wind  
Wind Speed 4 mph (NW)    
Max Wind Speed 16 mph    
Max Gust Speed 26 mph    
Visibility 10 miles    
Events Rain    
Averages and records for this station are not official NWS values.
T = Trace of Precipitation, MM = Missing Value Source: NWS Daily Summary

Daily Weather History Graph

Daily Weather History Graph

Search for Another Location

Airport or City:

Trip Planner

Search our weather history database for the weather conditions in past years. The results will help you decide how hot, cold, wet, or windy it might be!

Date:

Astronomy

May. 26, 2013 Rise Set
Actual Time 5:14 AM PDT 8:44 PM PDT
Civil Twilight 4:37 AM PDT 9:22 PM PDT
Nautical Twilight 3:47 AM PDT 10:12 PM PDT
Astronomical Twilight 2:41 AM PDT 11:19 PM PDT
Moon 10:34 PM PDT (5/26) 6:50 AM PDT (5/26)
Length of Visible Light 16h 44m
Length of Day
15h 29m
Waning Gibbous, 96% of the Moon is Illuminated
May 26
Waning Gibbous
May 31
Last Quarter
Jun 8
New
Jun 16
First Quarter
Jun 23
Full

Hourly Weather History & Observations

Time (PDT) Temp. Dew Point Humidity Pressure Visibility Wind Dir Wind Speed Gust Speed Precip Events Conditions
12:53 AM 50.0 °F 42.1 °F 74% 29.94 in 10.0 mi NE 4.6 mph - N/A   Overcast
1:53 AM 50.0 °F 42.1 °F 74% 29.94 in 10.0 mi Calm Calm - N/A   Mostly Cloudy
2:53 AM 48.0 °F 41.0 °F 77% 29.94 in 10.0 mi Calm Calm - N/A   Scattered Clouds
3:53 AM 48.0 °F 41.0 °F 77% 29.93 in 10.0 mi Calm Calm - N/A   Mostly Cloudy
4:53 AM 48.9 °F 42.1 °F 77% 29.93 in 10.0 mi Calm Calm - N/A   Overcast
5:53 AM 50.0 °F 44.1 °F 80% 29.93 in 10.0 mi Calm Calm - 0.00 in Rain Light Rain
6:53 AM 50.0 °F 44.1 °F 80% 29.94 in 10.0 mi Calm Calm - 0.00 in   Overcast
7:53 AM 52.0 °F 44.1 °F 74% 29.94 in 10.0 mi Calm Calm - N/A   Overcast
8:53 AM 55.9 °F 45.0 °F 67% 29.95 in 10.0 mi Calm Calm - N/A   Overcast
9:53 AM 57.0 °F 44.1 °F 62% 29.96 in 10.0 mi Calm Calm - N/A   Overcast
10:53 AM 59.0 °F 44.1 °F 58% 29.96 in 10.0 mi Calm Calm - 0.00 in   Overcast
11:53 AM 60.1 °F 45.0 °F 57% 29.96 in 10.0 mi Calm Calm - 0.02 in Rain Light Rain
12:53 PM 64.9 °F 44.1 °F 47% 29.94 in 10.0 mi Variable 4.6 mph - 0.00 in   Overcast
1:53 PM 66.9 °F 43.0 °F 42% 29.93 in 10.0 mi Variable 4.6 mph - N/A   Mostly Cloudy
2:53 PM 66.9 °F 42.1 °F 40% 29.92 in 10.0 mi South 4.6 mph - N/A   Mostly Cloudy
3:36 PM 60.8 °F 48.2 °F 63% 29.94 in 10.0 mi WNW 11.5 mph - N/A   Overcast
3:53 PM 62.1 °F 46.9 °F 58% 29.93 in 10.0 mi NW 10.4 mph 26.5 mph N/A   Overcast
4:53 PM 64.9 °F 48.0 °F 54% 29.93 in 10.0 mi NW 11.5 mph - N/A   Overcast
5:53 PM 62.1 °F 46.0 °F 56% 29.93 in 10.0 mi NW 13.8 mph - N/A   Overcast
6:53 PM 62.1 °F 46.0 °F 56% 29.94 in 10.0 mi NW 16.1 mph 21.9 mph N/A   Overcast
7:53 PM 62.1 °F 43.0 °F 50% 29.93 in 10.0 mi WNW 16.1 mph - 0.00 in   Overcast
8:53 PM 57.0 °F 43.0 °F 59% 29.94 in 10.0 mi NW 16.1 mph - N/A   Mostly Cloudy
9:53 PM 54.0 °F 43.0 °F 66% 29.95 in 10.0 mi NW 15.0 mph - N/A   Partly Cloudy
10:53 PM 51.1 °F 43.0 °F 74% 29.95 in 10.0 mi NW 9.2 mph - N/A   Scattered Clouds
11:53 PM 50.0 °F 42.1 °F 74% 29.94 in 10.0 mi WNW 6.9 mph - N/A   Scattered Clouds